Weather History for Asheville, NC

Change the Weather History Date:

Tuesday, July 21, 2009

  Actual Average Record
Temperature  
Mean Temperature 69 °F 74 °F  
Max Temperature 77 °F 84 °F 96 °F (1926)
Min Temperature 61 °F 64 °F 50 °F (1929)
Degree Days  
Heating Degree Days 0 0  
Month to date heating degree days 0 0  
Since 1 June heating degree days 0 14  
Since 1 July heating degree days 0 0  
Cooling Degree Days 4 9  
Month to date cooling degree days 119 185  
Year to date cooling degree days 382 420  
Since 1 June cooling degree days 328 362  
Growing Degree Days 18 (Base 50)    
Moisture  
Dew Point 58 °F    
Average Humidity 68    
Maximum Humidity 90    
Minimum Humidity 46    
Precipitation  
Precipitation 0.00 in 0.14 in 2.95 in (2003)
Month to date precipitation 1.30 2.93  
Year to date precipitation 28.77 25.83  
Snow  
Snow 0.00 in 0.00 in 0.00 in ()
Month to date snowfall 0.0 0.0  
Since 1 June snowfall 0.0 0.0  
Since 1 July snowfall 0.0 0.0  
Snow Depth 0.00 in    
Sea Level Pressure  
Sea Level Pressure 30.10 in    
Wind  
Wind Speed 3 mph (SE)    
Max Wind Speed 15 mph    
Max Gust Speed 21 mph    
Visibility 10 miles    
Events      
T = Trace of Precipitation, MM = Missing Value Source: NWS Daily Summary

Daily Weather History Graph

Daily Weather History Graph

Search for Another Location

Airport:

Trip Planner

Search our weather history database for the weather conditions in past years. The results will help you decide how hot, cold, wet, or windy it might be!

Date:

Astronomy

Jul. 21, 2009 Rise Set
Actual Time 6:30 AM EDT 8:42 PM EDT
Civil Twilight 6:01 AM EDT 9:10 PM EDT
Nautical Twilight 5:26 AM EDT 9:45 PM EDT
Astronomical Twilight 4:48 AM EDT 10:23 PM EDT
Moon 5:45 AM EDT (7/21) 8:33 PM EDT (7/21)
Length of Visible Light 15h 08m
Length of Day
14h 11m
Waning Crescent, 0% of the Moon is Illuminated
Jul 21
Waning Crescent
Jul 21
New
Jul 28
First Quarter
Aug 5
Full
Aug 13
Last Quarter

Hourly Weather History & Observations

Time (EDT) Temp. Dew Point Humidity Pressure Visibility Wind Dir Wind Speed Gust Speed Precip Events Conditions
12:09 AM 64.4 °F 57.2 °F 77% 30.14 in 10.0 mi Calm Calm - N/A   Overcast
12:26 AM 62.6 °F 57.2 °F 82% 30.15 in 10.0 mi Calm Calm - N/A   Mostly Cloudy
12:54 AM 63.0 °F 57.9 °F 84% 30.09 in 10.0 mi Calm Calm - N/A   Overcast
1:17 AM 62.6 °F 57.2 °F 82% 30.15 in 10.0 mi Calm Calm - N/A   Mostly Cloudy
1:54 AM 62.1 °F 57.9 °F 86% 30.08 in 10.0 mi Calm Calm - N/A   Mostly Cloudy
2:06 AM 60.8 °F 57.2 °F 88% 30.14 in 10.0 mi Calm Calm - N/A   Mostly Cloudy
2:16 AM 62.6 °F 57.2 °F 82% 30.14 in 10.0 mi Calm Calm - N/A   Mostly Cloudy
2:32 AM 60.8 °F 57.2 °F 88% 30.14 in 10.0 mi Calm Calm - N/A   Overcast
2:54 AM 61.0 °F 57.9 °F 90% 30.07 in 10.0 mi Calm Calm - N/A   Overcast
3:54 AM 62.1 °F 57.9 °F 86% 30.06 in 10.0 mi Calm Calm - N/A   Overcast
4:54 AM 63.0 °F 59.0 °F 87% 30.06 in 10.0 mi Calm Calm - N/A   Overcast
5:54 AM 62.1 °F 57.9 °F 86% 30.08 in 10.0 mi Calm Calm - N/A   Overcast
6:24 AM 62.6 °F 57.2 °F 82% 30.15 in 10.0 mi Calm Calm - N/A   Mostly Cloudy
6:54 AM 61.0 °F 57.0 °F 87% 30.09 in 10.0 mi Calm Calm - N/A   Mostly Cloudy
7:09 AM 62.6 °F 57.2 °F 82% 30.16 in 10.0 mi Calm Calm - N/A   Overcast
7:11 AM 62.6 °F 57.2 °F 82% 30.16 in 10.0 mi Calm Calm - N/A   Overcast
7:43 AM 62.6 °F 59.0 °F 88% 30.17 in 10.0 mi Calm Calm - N/A   Mostly Cloudy
7:54 AM 63.0 °F 59.0 °F 87% 30.10 in 10.0 mi Calm Calm - N/A   Overcast
8:37 AM 64.4 °F 60.8 °F 88% 30.16 in 10.0 mi NNW 3.5 mph - N/A   Scattered Clouds
8:54 AM 66.0 °F 59.0 °F 78% 30.10 in 10.0 mi North 3.5 mph - N/A   Partly Cloudy
9:30 AM 66.2 °F 59.0 °F 78% 30.16 in 10.0 mi Calm Calm - N/A   Mostly Cloudy
9:54 AM 66.9 °F 60.1 °F 79% 30.11 in 10.0 mi Calm Calm - N/A   Overcast
10:54 AM 68.0 °F 60.1 °F 76% 30.11 in 9.0 mi SSE 6.9 mph - N/A   Mostly Cloudy
11:14 AM 69.8 °F 60.8 °F 73% 30.15 in 9.0 mi SE 5.8 mph - N/A   Mostly Cloudy
11:22 AM 71.6 °F 60.8 °F 69% 30.15 in 10.0 mi SSE 8.1 mph - N/A   Scattered Clouds
11:34 AM 71.6 °F 60.8 °F 69% 30.15 in 10.0 mi South 4.6 mph - N/A   Mostly Cloudy
11:54 AM 70.0 °F 60.1 °F 71% 30.09 in 10.0 mi ESE 4.6 mph - N/A   Mostly Cloudy
12:54 PM 72.0 °F 59.0 °F 64% 30.07 in 10.0 mi SSE 5.8 mph - N/A   Mostly Cloudy
1:54 PM 72.0 °F 59.0 °F 64% 30.07 in 10.0 mi SE 4.6 mph - N/A   Overcast
2:54 PM 77.0 °F 60.1 °F 56% 30.06 in 10.0 mi Variable 4.6 mph - N/A   Mostly Cloudy
3:54 PM 75.9 °F 57.0 °F 52% 30.04 in 10.0 mi ESE 8.1 mph 18.4 mph N/A   Mostly Cloudy
4:54 PM 75.0 °F 55.9 °F 51% 30.04 in 10.0 mi Variable 5.8 mph - N/A   Scattered Clouds
5:54 PM 75.9 °F 54.0 °F 46% 30.04 in 10.0 mi SE 8.1 mph - N/A   Partly Cloudy
6:54 PM 75.9 °F 54.0 °F 46% 30.03 in 10.0 mi South 10.4 mph - N/A   Clear
7:54 PM 73.0 °F 57.0 °F 57% 30.04 in 10.0 mi SE 3.5 mph - N/A   Clear
8:54 PM 69.1 °F 57.9 °F 68% 30.06 in 10.0 mi Calm Calm - N/A   Clear
9:54 PM 66.0 °F 57.9 °F 75% 30.07 in 9.0 mi Calm Calm - N/A   Clear
10:54 PM 64.0 °F 57.9 °F 80% 30.09 in 9.0 mi Calm Calm - N/A   Clear
11:54 PM 62.1 °F 59.0 °F 90% 30.10 in 8.0 mi Calm Calm - N/A   Clear